DW6860 Weather Reports


Display with metric or nautical units.
time (UTC)temp
F
wind
direction
speed
MPH
gust
MPH
rain 1hr
in
rain 24hr
in
rain mn
in
humidity
%
barometer
mb
20260504211621 58 32 2.0 5.0 0.02 0.00 0.00 90 1012.0
20260504211505 58 21 2.0 5.0 0.02 0.06 0.06 90 1012.0
20260504211350 58 12 3.0 7.0 0.02 0.00 0.00 90 1012.0
20260504211006 58 18 3.0 7.0 0.03 0.06 0.06 90 1012.0
20260504210631 58 15 3.0 7.0 0.04 0.00 0.00 90 1012.0
20260504210506 58 17 3.0 7.0 0.04 0.06 0.06 90 1012.1
20260504210123 58 15 3.0 8.0 0.04 0.00 0.00 89 1012.0
20260504210007 58 19 3.0 8.0 0.04 0.06 0.06 89 1012.0
20260504205617 58 5 3.0 8.0 0.04 0.00 0.00 89 1012.0
20260504205505 58 20 3.0 8.0 0.04 0.06 0.06 89 1012.0
20260504205125 59 9 4.0 8.0 0.04 0.00 0.00 89 1012.0
20260504205006 59 20 3.0 8.0 0.04 0.06 0.06 89 1012.1
20260504204617 59 26 3.0 6.0 0.04 0.00 0.00 89 1012.0
20260504204547 59 15 3.0 7.0 0.04 0.00 0.00 88 1012.0
20260504204507 59 22 3.0 6.0 0.04 0.06 0.06 89 1012.0
20260504204234 59 16 3.0 7.0 0.04 0.00 0.00 89 1011.9
20260504204005 59 21 3.0 7.0 0.04 0.06 0.06 89 1012.0
20260504203527 59 18 3.0 7.0 0.04 0.06 0.06 88 1012.0
20260504203122 59 343 4.0 9.0 0.04 0.00 0.00 88 1011.9
20260504203026 59 23 4.0 9.0 0.04 0.06 0.06 88 1011.9
20260504202619 60 14 4.0 9.0 0.03 0.00 0.00 88 1011.9
20260504202506 60 22 4.0 9.0 0.03 0.06 0.06 88 1011.9
20260504202110 60 355 2.0 9.0 0.03 0.00 0.00 87 1011.9
20260504202006 60 16 2.0 9.0 0.03 0.06 0.06 87 1011.9
20260504202000 60 31 4.0 9.0 0.00 0.00 0.00 86 1011.9
20260504201700 60 15 3.0 12.0 0.02 0.00 0.00 87 1011.9
20260504201505 60 20 3.0 12.0 0.02 0.05 0.05 87 1011.9
20260504201300 60 15 4.0 12.0 0.01 0.00 0.00 87 1011.8
20260504201006 60 23 4.0 12.0 0.01 0.03 0.03 87 1011.9
20260504200506 60 26 4.0 9.0 0.00 0.02 0.02 86 1011.8
20260504200133 60 48 3.0 8.0 0.00 0.00 0.00 86 1011.7
20260504200006 60 28 3.0 8.0 0.00 0.02 0.02 86 1011.8
20260504195839 60 34 3.0 8.0 0.00 0.00 0.00 86 1011.7
20260504195708 60 0 5.0 11.0 0.00 0.00 0.00 85 1011.5
20260504195625 60 34 3.0 8.0 0.00 0.00 0.00 86 1011.7
20260504195505 60 24 3.0 9.0 0.00 0.02 0.02 86 1011.8
20260504195206 60 38 4.0 11.0 0.00 0.00 0.00 86 1011.7
20260504195005 60 22 4.0 11.0 0.00 0.02 0.02 86 1011.7
20260504194505 60 24 5.0 11.0 0.00 0.02 0.02 85 1011.6
20260504194114 60 24 5.0 11.0 0.00 0.00 0.00 85 1011.5
20260504194006 60 26 5.0 11.0 0.00 0.02 0.02 85 1011.6
20260504193613 60 12 5.0 11.0 0.00 0.00 0.00 85 1011.6
20260504193505 60 26 5.0 10.0 0.00 0.02 0.02 85 1011.6
20260504193341 61 28 5.0 11.0 0.00 0.00 0.00 85 1011.5
20260504193211 61 58 5.0 11.0 0.00 0.00 0.00 85 1011.6
20260504193006 61 25 5.0 11.0 0.00 0.02 0.02 85 1011.6
20260504192526 61 24 5.0 11.0 0.00 0.02 0.02 85 1011.5
20260504192105 61 29 5.0 11.0 0.00 0.00 0.00 85 1011.4
20260504192006 61 22 5.0 11.0 0.00 0.02 0.02 85 1011.5
20260504191618 61 0 5.0 11.0 0.00 0.00 0.00 85 1011.5
20260504191527 61 24 5.0 11.0 0.00 0.02 0.02 85 1011.5
20260504191127 61 23 5.0 11.0 0.00 0.00 0.00 85 1011.4
20260504191006 61 22 5.0 11.0 0.00 0.02 0.02 85 1011.5
20260504190626 62 355 5.0 10.0 0.00 0.00 0.00 85 1011.4
20260504190506 62 18 5.0 10.0 0.00 0.02 0.02 85 1011.4
20260504190244 62 15 4.0 9.0 0.00 0.00 0.00 85 1011.2
20260504190120 62 355 5.0 10.0 0.00 0.00 0.00 85 1011.3
20260504190006 62 19 5.0 10.0 0.00 0.02 0.02 85 1011.4
20260504185709 62 24 5.0 10.0 0.00 0.00 0.00 85 1011.4
20260504185505 62 16 5.0 10.0 0.00 0.02 0.02 85 1011.4
20260504185120 62 27 4.0 10.0 0.00 0.00 0.00 85 1011.3
20260504185006 62 12 4.0 10.0 0.00 0.02 0.02 85 1011.3
20260504184505 62 13 4.0 9.0 0.00 0.03 0.02 85 1011.2
20260504184106 63 355 4.0 9.0 0.00 0.00 0.00 85 1011.1
20260504184005 63 15 4.0 9.0 0.00 0.04 0.02 85 1011.2
20260504183556 63 15 3.0 8.0 0.00 0.00 0.00 85 1011.2
20260504183525 63 9 3.0 8.0 0.00 0.04 0.02 85 1011.2
20260504183051 63 14 3.0 7.0 0.00 0.00 0.00 85 1011.2
20260504183005 63 1 3.0 7.0 0.00 0.04 0.02 85 1011.2
20260504182554 63 5 3.0 6.0 0.00 0.00 0.00 84 1011.3
20260504182505 63 359 2.0 6.0 0.00 0.04 0.02 84 1011.3
20260504182059 63 343 3.0 8.0 0.00 0.00 0.00 84 1011.2
20260504182006 63 357 3.0 8.0 0.00 0.04 0.02 83 1011.4
20260504181551 63 348 3.0 8.0 0.00 0.00 0.00 83 1011.3
20260504181505 63 1 3.0 8.0 0.00 0.04 0.02 83 1011.3
20260504181054 63 346 3.0 6.0 0.00 0.00 0.00 83 1011.2
20260504181005 64 1 3.0 6.0 0.00 0.04 0.02 83 1011.3
20260504180550 64 332 2.0 6.0 0.00 0.00 0.00 82 1011.2
20260504180506 64 2 2.0 6.0 0.00 0.04 0.02 82 1011.3
20260504180115 64 23 3.0 10.0 0.00 0.00 0.00 82 1011.2
20260504180006 64 3 3.0 10.0 0.00 0.05 0.02 82 1011.3
20260504175552 64 345 2.0 10.0 0.00 0.00 0.00 81 1011.2
20260504175505 64 5 2.0 10.0 0.00 0.06 0.02 81 1011.2
20260504175111 64 26 1.0 4.0 0.00 0.00 0.00 81 1011.1
20260504175006 64 29 1.0 3.0 0.00 0.06 0.02 81 1011.1
20260504174604 64 29 1.0 3.0 0.00 0.00 0.00 81 1011.2
20260504174526 64 29 1.0 3.0 0.00 0.07 0.02 81 1011.2
20260504174104 64 29 1.0 3.0 0.00 0.00 0.00 81 1011.2
20260504174005 64 25 1.0 3.0 0.00 0.08 0.02 81 1011.2
20260504173548 64 31 2.0 4.0 0.00 0.00 0.00 81 1011.2
20260504173505 64 19 2.0 4.0 0.00 0.11 0.02 81 1011.2
20260504173258 64 11 2.0 4.0 0.00 0.00 0.00 81 1011.3
20260504173126 64 346 2.0 4.0 0.00 0.00 0.00 81 1011.3
20260504173005 64 14 2.0 4.0 0.00 0.13 0.02 81 1011.3
20260504172505 64 6 2.0 4.0 0.00 0.13 0.02 81 1011.3
20260504172225 65 5 2.0 4.0 0.00 0.00 0.00 81 1011.3
20260504172111 64 0 2.0 4.0 0.00 0.00 0.00 81 1011.2
20260504172006 64 13 2.0 4.0 0.00 0.13 0.02 81 1011.2
20260504171506 64 21 2.0 4.0 0.00 0.15 0.02 81 1011.3
20260504171036 65 15 2.0 5.0 0.00 0.00 0.00 80 1011.3
20260504171026 64 19 2.0 5.0 0.00 0.16 0.02 81 1011.3
20260504170534 65 31 2.0 5.0 0.00 0.00 0.00 81 1011.2
20260504170505 64 4 2.0 5.0 0.00 0.19 0.02 81 1011.3
20260504151005 64 334 1.0 3.0 0.00 0.56 0.02 83 1011.6
20260504150505 64 339 1.0 4.0 0.00 0.56 0.02 83 1011.6
20260504141005 64 274 1.0 3.0 0.00 0.56 0.02 81 1012.1
20260504140956 64 233 1.0 3.0 0.00 0.00 0.00 81 1012.0
20260504140506 64 272 0.0 2.0 0.00 0.56 0.02 80 1012.2
20260504140451 64 309 0.0 2.0 0.00 0.00 0.00 80 1012.2
20260504130507 63 360 1.0 3.0 0.00 0.56 0.02 88 1012.6
20260504130418 63 0 1.0 3.0 0.00 0.00 0.00 88 1012.5
20260504110505 62 207 0.0 2.0 0.00 0.68 0.02 91 1012.8
20260504110342 62 207 0.0 2.0 0.00 0.00 0.00 91 1012.7
20260504100525 61 207 0.0 1.0 0.02 0.71 0.02 92 1012.8
20260504100343 61 207 0.0 2.0 0.02 0.00 0.00 92 1012.7
20260504082005 60 132 2.0 4.0 0.00 0.69 0.00 95 1012.6
20260504081916 60 132 2.0 4.0 0.00 0.69 0.00 95 1012.5
20260504081504 60 132 1.0 4.0 0.00 0.69 0.00 95 1012.5
20260504081005 60 132 1.0 3.0 0.00 0.69 0.00 95 1012.6
20260504080913 60 132 1.0 2.0 0.00 0.69 0.00 95 1012.5
20260504080504 60 132 1.0 3.0 0.00 0.69 0.00 95 1012.5
20260504080409 60 132 1.0 3.0 0.00 0.69 0.00 95 1012.5
20260504070329 58 198 1.0 3.0 0.00 0.69 0.00 96 1012.2
20260504050745 54 202 0.0 1.0 0.00 0.69 0.00 96 1011.1
20260504050504 54 202 0.0 1.0 0.00 0.69 0.00 96 1011.2
20260504050236 54 202 0.0 1.0 0.00 0.69 0.00 96 1011.1
20260504050006 54 202 0.0 1.0 0.00 0.69 0.00 96 1011.0
20260504045748 54 202 0.0 1.0 0.00 0.69 0.00 96 1011.0
20260504045504 54 202 0.0 1.0 0.00 0.69 0.00 96 1011.1
20260504045235 54 202 0.0 1.0 0.00 0.69 0.00 96 1011.0
20260504045004 54 202 0.0 1.0 0.00 0.69 0.00 96 1011.1
20260504044722 54 202 0.0 0.0 0.00 0.69 0.00 96 1011.0
20260504044505 54 0 0.0 0.0 0.00 0.69 0.00 96 1011.0
20260504044223 54 202 0.0 1.0 0.00 0.69 0.00 96 1011.0
20260504044005 54 202 0.0 1.0 0.00 0.69 0.00 96 1011.1
20260504043717 54 202 0.0 1.0 0.00 0.69 0.00 96 1011.1
20260504043504 54 202 0.0 1.0 0.00 0.69 0.00 96 1011.0
20260504043222 54 202 0.0 0.0 0.00 0.69 0.00 96 1011.0
20260504043157 54 202 0.0 0.0 0.00 0.69 0.00 96 1011.1
20260504043026 54 0 0.0 0.0 0.00 0.69 0.00 96 1011.1
20260504042504 54 0 0.0 0.0 0.00 0.69 0.00 96 1011.1
20260504042224 54 202 0.0 0.0 0.00 0.69 0.00 96 1011.2
20260504042216 54 202 0.0 0.0 0.00 0.69 0.00 96 1011.0
20260504042004 54 0 0.0 0.0 0.00 0.69 0.00 96 1011.0
20260504041505 54 0 0.0 0.0 0.00 0.69 0.00 96 1011.1
20260504041213 54 202 0.0 0.0 0.00 0.69 0.00 96 1011.1
20260504041026 54 0 0.0 0.0 0.00 0.69 0.00 96 1011.2
20260504040656 53 202 0.0 0.0 0.00 0.69 0.00 96 1011.1
20260504040504 54 0 0.0 0.0 0.00 0.69 0.00 96 1011.1
20260504040152 53 202 0.0 0.0 0.00 0.69 0.00 96 1011.1
20260504040005 54 0 0.0 0.0 0.00 0.69 0.00 96 1011.1
20260504035634 53 202 0.0 0.0 0.00 0.69 0.00 96 1011.1
20260504035504 54 0 0.0 0.0 0.00 0.69 0.00 96 1011.1
20260504035136 53 202 0.0 0.0 0.00 0.69 0.00 96 1011.1
20260504035005 53 0 0.0 0.0 0.00 0.69 0.00 96 1011.2
20260504034629 53 202 0.0 0.0 0.00 0.69 0.00 96 1011.2
20260504034504 53 0 0.0 0.0 0.00 0.69 0.00 96 1011.2
20260504034126 53 202 0.0 0.0 0.00 0.69 0.00 96 1011.2
20260504034025 53 0 0.0 0.0 0.00 0.69 0.00 96 1011.3
20260504033622 53 202 0.0 0.0 0.00 0.69 0.00 96 1011.2
20260504033504 53 0 0.0 0.0 0.00 0.69 0.00 96 1011.2
20260504033125 53 202 0.0 0.0 0.00 0.69 0.00 96 1011.2
20260504033004 53 0 0.0 0.0 0.00 0.69 0.00 96 1011.2
20260504032616 53 202 0.0 1.0 0.00 0.69 0.00 96 1011.3
20260504032504 53 202 0.0 1.0 0.00 0.69 0.00 96 1011.3
20260504032120 53 202 0.0 1.0 0.00 0.69 0.00 96 1011.3
20260504032004 53 202 0.0 1.0 0.00 0.69 0.00 96 1011.2
20260504031612 53 202 0.0 0.0 0.00 0.69 0.00 96 1011.2
20260504031504 53 0 0.0 0.0 0.00 0.69 0.00 96 1011.2
20260504031347 53 202 1.0 2.0 0.00 0.69 0.00 96 1011.2
20260504031154 53 202 0.0 0.0 0.00 0.69 0.00 96 1011.3
20260504031005 53 0 0.0 0.0 0.00 0.69 0.00 96 1011.3
20260504030636 53 202 0.0 1.0 0.00 0.69 0.00 96 1011.3
20260504030505 53 202 0.0 2.0 0.00 0.69 0.00 96 1011.3
20260504030005 53 202 1.0 2.0 0.00 0.69 0.00 96 1011.3
20260504025609 53 202 0.0 2.0 0.00 0.69 0.00 96 1011.3
20260504025504 53 202 0.0 1.0 0.00 0.69 0.00 96 1011.2
20260504025130 53 202 0.0 1.0 0.00 0.69 0.00 96 1011.3
20260504025005 53 0 0.0 0.0 0.00 0.69 0.00 96 1011.3
20260504024606 53 202 0.0 1.0 0.00 0.69 0.00 96 1011.3
20260504024503 53 202 0.0 1.0 0.00 0.69 0.00 96 1011.3
20260504024106 53 202 0.0 1.0 0.00 0.69 0.00 96 1011.3
20260504024004 53 202 0.0 1.0 0.00 0.69 0.00 96 1011.4
20260504023617 53 202 0.0 1.0 0.00 0.69 0.00 96 1011.2
20260504023504 53 202 0.0 1.0 0.00 0.69 0.00 96 1011.2
20260504023140 53 202 0.0 3.0 0.00 0.69 0.00 96 1011.0
20260504023100 53 202 0.0 3.0 0.00 0.69 0.00 96 1011.2
20260504023004 53 202 0.0 3.0 0.00 0.69 0.00 96 1011.1
20260504022503 53 202 0.0 3.0 0.00 0.69 0.00 96 1011.0
20260504022032 53 202 0.0 1.0 0.00 0.69 0.00 96 1010.9
20260504022005 53 202 0.0 1.0 0.00 0.69 0.00 96 1011.0
20260504021641 53 202 0.0 1.0 0.00 0.69 0.00 96 1010.9
20260504021554 53 202 0.0 1.0 0.00 0.69 0.00 96 1010.8
20260504021505 53 202 0.0 1.0 0.00 0.69 0.00 96 1010.9
20260504021004 53 202 0.0 1.0 0.00 0.69 0.00 96 1010.9
20260504020537 53 202 0.0 1.0 0.00 0.69 0.00 95 1010.9
20260504020525 53 202 0.0 1.0 0.00 0.69 0.00 95 1010.9
20260504020108 53 202 0.0 0.0 0.00 0.69 0.00 95 1010.9
20260504020004 53 0 0.0 0.0 0.00 0.69 0.00 95 1010.9
20260504015531 53 202 0.0 0.0 0.00 0.69 0.00 95 1010.9
20260504015503 53 0 0.0 0.0 0.00 0.69 0.00 95 1010.9
20260504015144 53 202 0.0 2.0 0.00 0.69 0.00 95 1010.8
20260504015059 53 202 0.0 1.0 0.00 0.69 0.00 95 1010.8
20260504015004 53 202 0.0 1.0 0.00 0.69 0.00 95 1010.9
20260504014504 53 202 0.0 2.0 0.00 0.69 0.00 95 1010.8
20260504014457 53 202 0.0 2.0 0.00 0.69 0.00 95 1010.9
20260504014025 53 202 0.0 2.0 0.00 0.69 0.00 95 1010.9
20260504013931 53 202 0.0 2.0 0.00 0.69 0.00 95 1011.0
20260504013503 54 202 0.0 2.0 0.00 0.69 0.00 95 1011.0
20260504013022 54 202 0.0 1.0 0.00 0.69 0.00 95 1010.9
20260504013004 54 202 0.0 1.0 0.00 0.69 0.00 95 1010.9
20260504012525 54 202 0.0 1.0 0.00 0.69 0.00 95 1010.9
20260504012042 54 202 0.0 1.0 0.00 0.69 0.00 95 1010.9
20260504012004 54 202 0.0 1.0 0.00 0.69 0.00 95 1010.9
20260504011539 54 202 0.0 1.0 0.00 0.69 0.00 95 1010.8
20260504011503 54 202 0.0 1.0 0.00 0.69 0.00 95 1010.8
20260504011035 54 202 0.0 0.0 0.00 0.69 0.00 95 1010.8
20260504011004 54 0 0.0 0.0 0.00 0.69 0.00 95 1010.8
20260504010643 54 202 0.0 1.0 0.00 0.69 0.00 95 1010.7
20260504010546 54 202 0.0 0.0 0.00 0.69 0.00 95 1010.7
20260504010505 54 0 0.0 0.0 0.00 0.69 0.00 95 1010.8
20260504010004 54 202 0.0 1.0 0.00 0.69 0.00 95 1010.7
20260504005507 54 202 0.0 2.0 0.00 0.69 0.00 95 1010.6
20260504005504 54 202 0.0 2.0 0.00 0.69 0.00 95 1010.7
20260504005109 55 202 0.0 2.0 0.00 0.69 0.00 95 1010.7
20260504005005 54 202 0.0 2.0 0.00 0.69 0.00 95 1010.7
20260504004837 55 202 0.0 2.0 0.00 0.69 0.00 95 1010.7
20260504004549 55 202 0.0 2.0 0.00 0.69 0.00 95 1010.8
20260504003504 55 202 0.0 1.0 0.00 0.69 0.00 95 1010.8
20260504003500 55 202 0.0 1.0 0.00 0.69 0.00 95 1010.8
20260504003004 55 202 0.0 1.0 0.00 0.69 0.00 95 1010.8
20260504002954 55 202 0.0 1.0 0.00 0.69 0.00 95 1010.8
20260504002946 55 202 0.0 1.0 0.00 0.69 0.00 95 1010.8
20260504002504 55 202 0.0 1.0 0.00 0.69 0.00 95 1010.8
20260504002004 55 202 0.0 1.0 0.00 0.69 0.00 95 1010.8
20260504001939 55 202 0.0 1.0 0.00 0.69 0.00 95 1010.7
20260504001504 55 202 0.0 2.0 0.00 0.69 0.00 95 1010.6
20260504001428 55 202 0.0 2.0 0.00 0.69 0.00 95 1010.6
20260504001121 55 202 0.0 2.0 0.00 0.69 0.00 95 1010.6
20260504001045 55 202 1.0 2.0 0.00 0.69 0.00 95 1010.9
20260504001005 55 202 0.0 2.0 0.00 0.69 0.00 95 1010.7
20260504000952 55 202 0.0 2.0 0.00 0.69 0.00 95 1010.8
20260504000503 55 202 0.0 2.0 0.00 0.69 0.00 95 1010.6
20260504000005 55 202 0.0 2.0 0.00 0.69 0.00 95 1010.9
20260503235503 55 202 0.0 2.0 0.00 0.69 0.00 95 1010.9
20260503235414 55 202 0.0 2.0 0.00 0.69 0.00 95 1010.9
20260503235004 55 202 0.0 3.0 0.00 0.69 0.00 95 1010.9
20260503234956 55 202 1.0 5.0 0.00 0.69 0.00 95 1010.9
20260503234917 55 202 0.0 3.0 0.00 0.69 0.00 95 1010.9
20260503234504 55 198 1.0 5.0 0.00 0.69 0.00 95 1010.9
20260503234005 55 183 1.0 5.0 0.00 0.69 0.00 95 1011.0
20260503233855 55 202 1.0 5.0 0.00 0.69 0.00 95 1010.9
20260503233504 55 172 1.0 2.0 0.00 0.69 0.00 95 1011.0
20260503233342 55 172 1.0 2.0 0.00 0.69 0.00 95 1010.9
20260503233331 55 172 0.0 2.0 0.00 0.69 0.00 95 1011.0
20260503233004 55 172 0.0 2.0 0.00 0.69 0.00 95 1011.0
20260503232504 55 172 0.0 2.0 0.00 0.69 0.00 95 1011.0
20260503232339 55 172 0.0 2.0 0.00 0.69 0.00 95 1010.9
20260503232058 55 172 0.0 2.0 0.00 0.69 0.00 95 1010.9
20260503232004 55 172 0.0 2.0 0.00 0.69 0.00 95 1011.0
20260503231913 55 172 0.0 2.0 0.00 0.69 0.00 95 1010.9
20260503231503 55 172 0.0 3.0 0.00 0.69 0.00 95 1011.0
20260503231406 55 172 0.0 3.0 0.00 0.69 0.00 95 1011.0
20260503231004 55 172 1.0 3.0 0.00 0.69 0.00 95 1011.0
20260503230902 55 172 1.0 3.0 0.00 0.69 0.00 95 1011.0
20260503230503 55 172 1.0 2.0 0.00 0.69 0.00 95 1011.1
20260503230406 55 172 1.0 2.0 0.00 0.69 0.00 95 1011.1
20260503230017 55 172 0.0 2.0 0.00 0.69 0.00 95 1011.0
20260503225822 55 172 0.0 1.0 0.00 0.69 0.00 95 1010.9
20260503225516 55 172 0.0 1.0 0.00 0.69 0.00 95 1010.9
20260503225017 55 172 0.0 1.0 0.00 0.69 0.00 95 1011.0
20260503224828 55 172 0.0 1.0 0.00 0.69 0.00 95 1011.0
20260503224516 55 172 0.0 1.0 0.00 0.69 0.00 95 1011.0
20260503224320 55 172 0.0 1.0 0.00 0.69 0.00 95 1010.9
20260503224039 55 172 0.0 1.0 0.00 0.69 0.00 95 1011.0
20260503224022 55 172 0.0 0.0 0.00 0.69 0.00 95 1011.1
20260503223843 55 172 0.0 1.0 0.00 0.69 0.00 95 1011.1
20260503223516 55 172 0.0 1.0 0.00 0.69 0.00 95 1011.0
20260503223328 55 172 0.0 1.0 0.00 0.69 0.00 94 1011.0
20260503223038 55 172 0.0 1.0 0.00 0.69 0.00 95 1011.0
20260503222828 55 172 0.0 1.0 0.00 0.69 0.00 95 1011.0
20260503222516 55 0 0.0 0.0 0.00 0.69 0.00 95 1011.0
20260503222017 55 0 0.0 0.0 0.00 0.69 0.00 95 1011.1
20260503221803 55 172 0.0 0.0 0.00 0.69 0.00 95 1011.0
20260503221516 55 0 0.0 0.0 0.00 0.69 0.00 95 1011.1
20260503221308 55 172 0.0 0.0 0.00 0.69 0.00 95 1011.2
20260503221017 55 0 0.0 0.0 0.00 0.69 0.00 95 1011.2
20260503220736 55 172 0.0 0.0 0.00 0.69 0.00 95 1011.1
20260503220658 55 172 0.0 0.0 0.00 0.69 0.00 95 1011.0
20260503220516 55 0 0.0 0.0 0.00 0.69 0.00 95 1011.2
20260503220045 55 0 0.0 0.0 0.00 0.69 0.00 95 1011.1
20260503215745 55 172 0.0 1.0 0.00 0.69 0.00 94 1011.0
20260503215731 55 172 0.0 0.0 0.00 0.69 0.00 95 1011.1
20260503215723 55 172 0.0 1.0 0.00 0.69 0.00 94 1011.1
20260503215537 55 0 0.0 0.0 0.00 0.69 0.69 95 1011.2
20260503215427 55 172 0.0 1.0 0.00 0.69 0.00 95 1011.1
20260503215037 55 172 0.0 1.0 0.00 0.69 0.69 94 1011.2
20260503214516 55 172 0.0 1.0 0.00 0.69 0.69 94 1011.2
20260503214016 55 0 0.0 0.0 0.00 0.69 0.69 94 1011.0
20260503213722 55 172 0.0 0.0 0.00 0.69 0.00 94 1011.1
20260503213516 55 0 0.0 0.0 0.00 0.69 0.69 94 1011.0
20260503213213 56 172 0.0 0.0 0.00 0.69 0.00 94 1011.0
20260503213017 56 0 0.0 0.0 0.00 0.69 0.69 94 1011.0
20260503212703 56 172 0.0 0.0 0.00 0.69 0.00 94 1011.0
20260503212516 56 0 0.0 0.0 0.00 0.69 0.69 94 1011.0
20260503212309 56 172 0.0 0.0 0.00 0.70 0.00 94 1011.0
20260503212300 56 172 0.0 0.0 0.00 0.71 0.00 94 1011.0
20260503212217 56 172 0.0 0.0 0.00 0.69 0.00 94 1011.0
20260503212016 56 0 0.0 0.0 0.00 0.70 0.69 94 1011.0